Time,TemperatureF,DewpointF,PressureIn,WindDirection,WindDirectionDegrees,WindSpeedMPH,WindSpeedGustMPH,Humidity,HourlyPrecipIn,Conditions,Clouds,dailyrainin,SoftwareType,DateUTC
2013-01-13 00:11:00,74.7,62.0,30.03,SE,135,4.5,4.5,57,0.00,,,-99.99,Homeseer,2013-01-13 05:11:00,
2013-01-13 00:21:00,74.7,63.5,30.03,ESE,112,3.8,3.8,61,0.00,,,-99.99,Homeseer,2013-01-13 05:21:00,
2013-01-13 00:31:00,74.8,65.0,30.03,ESE,112,6.3,6.3,65,0.00,,,-99.99,Homeseer,2013-01-13 05:31:00,
2013-01-13 00:41:00,74.8,66.9,30.03,SSE,157,6.3,6.3,71,0.00,,,-99.99,Homeseer,2013-01-13 05:41:00,
2013-01-13 00:51:00,74.5,66.0,30.03,SSE,157,9.0,9.0,69,0.00,,,-99.99,Homeseer,2013-01-13 05:51:00,
2013-01-13 01:01:00,74.5,66.0,30.03,SE,135,5.4,5.8,69,0.00,,,-99.99,Homeseer,2013-01-13 06:01:00,
2013-01-13 01:10:00,74.5,66.3,30.03,SE,135,5.8,6.5,70,0.00,,,-99.99,Homeseer,2013-01-13 06:10:00,
2013-01-13 01:20:00,74.5,66.9,30.03,SE,135,4.5,5.4,72,0.00,,,-99.99,Homeseer,2013-01-13 06:20:00,
2013-01-13 01:30:00,74.5,66.3,30.03,SE,135,5.4,6.0,70,0.00,,,-99.99,Homeseer,2013-01-13 06:30:00,
2013-01-13 01:40:00,74.5,66.3,30.03,SSE,157,4.7,4.7,70,0.00,,,-99.99,Homeseer,2013-01-13 06:40:00,
2013-01-13 01:50:00,74.1,67.8,30.03,SSE,157,9.2,9.2,76,0.00,,,-99.99,Homeseer,2013-01-13 06:50:00,
2013-01-13 02:00:00,74.1,66.3,30.03,SE,135,7.6,8.7,71,0.00,,,-99.99,Homeseer,2013-01-13 07:00:00,
2013-01-13 02:10:00,74.1,65.9,30.03,SSE,157,6.9,7.2,70,0.00,,,-99.99,Homeseer,2013-01-13 07:10:00,
2013-01-13 02:20:00,73.9,67.0,30.03,SSE,157,4.0,4.0,74,0.00,,,-99.99,Homeseer,2013-01-13 07:20:00,
2013-01-13 02:30:00,73.9,66.7,30.03,SE,135,4.5,4.5,73,0.00,,,-99.99,Homeseer,2013-01-13 07:30:00,
2013-01-13 02:40:00,73.9,65.7,30.03,SSE,157,2.5,6.3,70,0.00,,,-99.99,Homeseer,2013-01-13 07:40:00,
2013-01-13 02:50:00,74.1,65.3,30.03,ESE,112,5.8,5.8,68,0.00,,,-99.99,Homeseer,2013-01-13 07:50:00,
2013-01-13 03:00:00,74.1,65.3,30.03,SE,135,6.0,6.0,68,0.00,,,-99.99,Homeseer,2013-01-13 08:00:00,
2013-01-13 03:10:00,74.3,64.5,30.03,SE,135,6.0,6.0,65,0.00,,,-99.99,Homeseer,2013-01-13 08:10:00,
2013-01-13 03:20:00,74.1,63.6,30.03,SSE,157,8.7,8.7,63,0.00,,,-99.99,Homeseer,2013-01-13 08:20:00,
2013-01-13 03:30:00,74.1,63.3,30.03,North,0,6.3,6.3,62,0.00,,,-99.99,Homeseer,2013-01-13 08:30:00,
2013-01-13 03:40:00,74.1,64.3,30.03,SSE,157,4.0,5.8,65,0.00,,,-99.99,Homeseer,2013-01-13 08:40:00,
2013-01-13 03:50:00,74.1,63.6,30.00,SE,135,7.6,7.6,63,0.00,,,-99.99,Homeseer,2013-01-13 08:50:00,
2013-01-13 04:00:00,74.1,64.0,30.00,SE,135,6.5,7.8,64,0.00,,,-99.99,Homeseer,2013-01-13 09:00:00,
2013-01-13 04:10:00,73.9,63.8,30.00,SSE,157,7.2,8.1,64,0.00,,,-99.99,Homeseer,2013-01-13 09:10:00,
2013-01-13 04:20:00,73.9,62.7,30.00,SE,135,9.0,9.8,61,0.00,,,-99.99,Homeseer,2013-01-13 09:20:00,
2013-01-13 04:30:00,73.9,63.4,30.03,North,0,7.6,7.6,63,0.00,,,-99.99,Homeseer,2013-01-13 09:30:00,
2013-01-13 04:40:00,73.9,62.7,30.03,SSE,157,6.7,6.7,61,0.00,,,-99.99,Homeseer,2013-01-13 09:40:00,
2013-01-13 04:50:00,73.9,63.4,30.03,ESE,112,6.5,10.1,63,0.00,,,-99.99,Homeseer,2013-01-13 09:50:00,
2013-01-13 05:00:00,73.8,62.6,30.03,ESE,112,6.3,6.3,61,0.00,,,-99.99,Homeseer,2013-01-13 10:00:00,
2013-01-13 05:10:00,73.9,63.1,30.03,North,0,4.3,4.3,62,0.00,,,-99.99,Homeseer,2013-01-13 10:10:00,
2013-01-13 05:20:00,73.8,62.6,30.03,SSE,157,6.9,6.9,61,0.00,,,-99.99,Homeseer,2013-01-13 10:20:00,
2013-01-13 05:30:00,73.8,62.6,30.03,SE,135,6.5,6.5,61,0.00,,,-99.99,Homeseer,2013-01-13 10:30:00,
2013-01-13 05:40:00,73.6,63.1,30.03,South,180,6.0,6.3,63,0.00,,,-99.99,Homeseer,2013-01-13 10:40:00,
2013-01-13 05:50:00,73.4,64.0,30.03,SE,135,4.5,4.5,66,0.00,,,-99.99,Homeseer,2013-01-13 10:50:00,
2013-01-13 06:00:00,73.4,64.3,30.03,SSE,157,7.8,8.1,67,0.00,,,-99.99,Homeseer,2013-01-13 11:00:00,
2013-01-13 06:10:00,73.2,63.8,30.03,South,180,4.7,4.7,66,0.00,,,-99.99,Homeseer,2013-01-13 11:10:00,
2013-01-13 06:20:00,73.4,63.6,30.03,SSE,157,4.3,6.0,65,0.00,,,-99.99,Homeseer,2013-01-13 11:20:00,
2013-01-13 06:30:00,73.6,64.5,30.03,SE,135,6.9,7.8,67,0.00,,,-99.99,Homeseer,2013-01-13 11:30:00,
2013-01-13 06:40:00,73.6,64.2,30.03,SE,135,7.6,7.6,66,0.00,,,-99.99,Homeseer,2013-01-13 11:40:00,
2013-01-13 06:50:00,73.6,64.2,30.03,SE,135,4.5,4.5,66,0.00,,,-99.99,Homeseer,2013-01-13 11:50:00,
2013-01-13 07:00:00,73.6,63.1,30.03,SE,135,7.8,7.8,63,0.00,,,-99.99,Homeseer,2013-01-13 12:00:00,
2013-01-13 07:10:00,73.8,64.0,30.03,SSE,157,7.4,8.5,65,0.00,,,-99.99,Homeseer,2013-01-13 12:10:00,
2013-01-13 07:20:00,73.8,65.0,30.03,SSE,157,7.2,7.2,68,0.00,,,-99.99,Homeseer,2013-01-13 12:20:00,
2013-01-13 07:30:00,73.9,65.1,30.03,SE,135,8.5,9.8,68,0.00,,,-99.99,Homeseer,2013-01-13 12:30:00,
2013-01-13 07:40:00,73.9,65.4,30.03,SSE,157,6.0,7.6,69,0.00,,,-99.99,Homeseer,2013-01-13 12:40:00,
2013-01-13 07:50:00,74.3,66.1,30.03,SSE,157,8.1,8.1,70,0.00,,,-99.99,Homeseer,2013-01-13 12:50:00,
2013-01-13 08:00:00,74.1,65.9,30.03,ESE,112,7.8,8.1,70,0.00,,,-99.99,Homeseer,2013-01-13 13:00:00,
2013-01-13 08:10:00,74.3,65.8,30.03,SSE,157,7.4,10.5,69,0.00,,,-99.99,Homeseer,2013-01-13 13:10:00,
2013-01-13 08:20:00,74.7,66.2,30.03,South,180,5.8,8.7,69,0.00,,,-99.99,Homeseer,2013-01-13 13:20:00,
2013-01-13 08:30:00,74.7,65.5,30.03,South,180,10.3,12.3,67,0.00,,,-99.99,Homeseer,2013-01-13 13:30:00,
2013-01-13 08:40:00,74.8,65.6,30.03,SW,225,8.7,9.8,67,0.00,,,-99.99,Homeseer,2013-01-13 13:40:00,
2013-01-13 08:50:00,75.2,66.0,30.03,ESE,112,7.4,7.4,67,0.00,,,-99.99,Homeseer,2013-01-13 13:50:00,
2013-01-13 09:00:00,75.4,66.2,30.03,ESE,112,11.2,15.2,67,0.00,,,-99.99,Homeseer,2013-01-13 14:00:00,
2013-01-13 09:10:00,75.7,66.5,30.03,SSE,157,6.5,6.5,67,0.00,,,-99.99,Homeseer,2013-01-13 14:10:00,
2013-01-13 09:20:00,75.9,66.7,30.03,SSE,157,5.6,7.4,67,0.00,,,-99.99,Homeseer,2013-01-13 14:20:00,
2013-01-13 09:30:00,75.4,65.2,30.03,South,180,6.9,6.9,64,0.00,,,-99.99,Homeseer,2013-01-13 14:30:00,
2013-01-13 09:40:00,75.6,63.9,30.03,ESE,112,6.9,6.9,60,0.00,,,-99.99,Homeseer,2013-01-13 14:40:00,
2013-01-13 09:50:00,75.9,62.7,30.06,SSE,157,4.0,4.0,56,0.00,,,-99.99,Homeseer,2013-01-13 14:50:00,
2013-01-13 10:00:00,76.3,64.2,30.06,ESE,112,5.4,5.4,59,0.00,,,-99.99,Homeseer,2013-01-13 15:00:00,
2013-01-13 10:10:00,76.5,64.4,30.06,SSE,157,5.6,5.6,59,0.00,,,-99.99,Homeseer,2013-01-13 15:10:00,
2013-01-13 10:20:00,76.6,62.9,30.03,South,180,6.3,6.3,55,0.00,,,-99.99,Homeseer,2013-01-13 15:20:00,
2013-01-13 10:30:00,76.8,63.9,30.06,North,0,7.4,9.8,57,0.00,,,-99.99,Homeseer,2013-01-13 15:30:00,
2013-01-13 10:40:00,77.4,64.1,30.06,South,180,4.5,6.0,56,0.00,,,-99.99,Homeseer,2013-01-13 15:40:00,
2013-01-13 10:50:00,77.4,64.5,30.03,SSE,157,6.7,6.7,57,0.00,,,-99.99,Homeseer,2013-01-13 15:50:00,
2013-01-13 11:00:00,77.5,63.8,30.03,SE,135,4.7,5.8,55,0.00,,,-99.99,Homeseer,2013-01-13 16:00:00,
2013-01-13 11:10:00,77.2,63.1,30.03,SSE,157,4.0,4.0,54,0.00,,,-99.99,Homeseer,2013-01-13 16:10:00,
2013-01-13 11:20:00,78.4,65.4,30.06,South,180,3.6,3.6,57,0.00,,,-99.99,Homeseer,2013-01-13 16:20:00,
2013-01-13 11:30:00,78.6,63.5,30.06,SE,135,7.6,7.6,52,0.00,,,-99.99,Homeseer,2013-01-13 16:30:00,
2013-01-13 11:40:00,79.0,63.5,30.06,North,0,2.9,4.0,51,0.00,,,-99.99,Homeseer,2013-01-13 16:40:00,
2013-01-13 11:50:00,79.2,62.8,30.06,North,0,3.6,3.6,49,0.00,,,-99.99,Homeseer,2013-01-13 16:50:00,
2013-01-13 12:00:00,79.3,62.4,30.06,SSE,157,5.6,8.1,48,0.00,,,-99.99,Homeseer,2013-01-13 17:00:00,
2013-01-13 12:10:00,79.5,61.7,30.06,South,180,4.3,4.9,46,0.00,,,-99.99,Homeseer,2013-01-13 17:10:00,
2013-01-13 12:20:00,80.1,63.1,30.06,ESE,112,3.4,3.4,48,0.00,,,-99.99,Homeseer,2013-01-13 17:20:00,
2013-01-13 12:30:00,79.9,62.5,30.06,SE,135,4.5,4.5,47,0.00,,,-99.99,Homeseer,2013-01-13 17:30:00,
2013-01-13 12:40:00,80.1,62.2,30.06,South,180,4.3,4.3,46,0.00,,,-99.99,Homeseer,2013-01-13 17:40:00,
2013-01-13 12:50:00,80.1,61.2,30.06,ESE,112,5.8,6.0,44,0.00,,,-99.99,Homeseer,2013-01-13 17:50:00,
2013-01-13 13:00:00,80.6,62.7,30.06,South,180,2.9,3.6,46,0.00,,,-99.99,Homeseer,2013-01-13 18:00:00,
2013-01-13 13:10:00,80.8,62.4,30.06,South,180,2.7,2.7,45,0.00,,,-99.99,Homeseer,2013-01-13 18:10:00,
2013-01-13 13:20:00,81.1,62.1,30.06,ESE,112,4.3,4.3,44,0.00,,,-99.99,Homeseer,2013-01-13 18:20:00,
2013-01-13 13:30:00,80.8,61.4,30.06,WSW,247,3.4,3.4,43,0.00,,,-99.99,Homeseer,2013-01-13 18:30:00,
2013-01-13 13:40:00,81.1,62.6,30.06,North,0,3.1,3.8,45,0.00,,,-99.99,Homeseer,2013-01-13 18:40:00,
2013-01-13 13:50:00,81.3,62.3,30.06,North,0,4.0,4.0,44,0.00,,,-99.99,Homeseer,2013-01-13 18:50:00,
2013-01-13 14:00:00,81.3,62.3,30.06,SSE,157,3.6,4.3,44,0.00,,,-99.99,Homeseer,2013-01-13 19:00:00,
2013-01-13 14:10:00,81.3,61.8,30.06,North,0,4.3,6.3,43,0.00,,,-99.99,Homeseer,2013-01-13 19:10:00,
2013-01-13 14:20:00,80.8,60.3,30.06,East,90,3.6,5.4,41,0.00,,,-99.99,Homeseer,2013-01-13 19:20:00,
2013-01-13 14:30:00,80.6,60.7,30.06,SSE,157,4.5,4.5,42,0.00,,,-99.99,Homeseer,2013-01-13 19:30:00,
2013-01-13 14:40:00,79.9,60.1,30.06,SE,135,3.4,3.4,42,0.00,,,-99.99,Homeseer,2013-01-13 19:40:00,
2013-01-13 14:50:00,80.1,60.8,30.03,South,180,3.8,3.8,43,0.00,,,-99.99,Homeseer,2013-01-13 19:50:00,
2013-01-13 15:00:00,79.9,61.6,30.03,ESE,112,3.6,3.6,45,0.00,,,-99.99,Homeseer,2013-01-13 20:00:00,
2013-01-13 15:10:00,79.3,60.5,30.03,SE,135,3.4,4.9,44,0.00,,,-99.99,Homeseer,2013-01-13 20:10:00,
2013-01-13 15:20:00,78.6,61.3,30.03,South,180,4.7,4.7,47,0.00,,,-99.99,Homeseer,2013-01-13 20:20:00,
2013-01-13 15:30:00,78.8,60.6,30.03,South,180,5.6,5.6,45,0.00,,,-99.99,Homeseer,2013-01-13 20:30:00,
2013-01-13 15:40:00,78.4,60.7,30.03,SE,135,4.7,4.7,46,0.00,,,-99.99,Homeseer,2013-01-13 20:40:00,
2013-01-13 15:50:00,78.4,61.2,30.03,ESE,112,3.6,5.4,47,0.00,,,-99.99,Homeseer,2013-01-13 20:50:00,
2013-01-13 16:00:00,79.0,61.7,30.06,SE,135,4.0,4.0,47,0.00,,,-99.99,Homeseer,2013-01-13 21:00:00,
2013-01-13 16:10:00,78.4,62.1,30.06,South,180,3.6,5.4,49,0.00,,,-99.99,Homeseer,2013-01-13 21:10:00,
2013-01-13 16:20:00,78.1,61.8,30.06,SSE,157,4.5,6.3,49,0.00,,,-99.99,Homeseer,2013-01-13 21:20:00,
2013-01-13 16:30:00,77.9,62.0,30.06,SSE,157,4.3,4.3,50,0.00,,,-99.99,Homeseer,2013-01-13 21:30:00,
2013-01-13 16:40:00,77.4,61.6,30.06,SE,135,3.6,4.3,50,0.00,,,-99.99,Homeseer,2013-01-13 21:40:00,
2013-01-13 16:50:00,77.4,61.2,30.06,SSE,157,3.8,3.8,49,0.00,,,-99.99,Homeseer,2013-01-13 21:50:00,
2013-01-13 17:00:00,77.2,61.8,30.06,SSE,157,5.4,5.8,51,0.00,,,-99.99,Homeseer,2013-01-13 22:00:00,
2013-01-13 17:10:00,76.8,62.3,30.06,SSE,157,6.3,6.5,53,0.00,,,-99.99,Homeseer,2013-01-13 22:10:00,
2013-01-13 17:20:00,76.5,61.6,30.06,SSE,157,4.5,4.5,52,0.00,,,-99.99,Homeseer,2013-01-13 22:20:00,
2013-01-13 17:30:00,76.1,60.8,30.06,SSE,157,4.5,4.7,51,0.00,,,-99.99,Homeseer,2013-01-13 22:30:00,
2013-01-13 17:40:00,75.7,61.7,30.06,South,180,4.3,8.7,54,0.00,,,-99.99,Homeseer,2013-01-13 22:40:00,
2013-01-13 17:50:00,75.6,61.2,30.06,SSE,157,4.7,4.7,53,0.00,,,-99.99,Homeseer,2013-01-13 22:50:00,
2013-01-13 18:00:00,75.4,61.8,30.06,North,0,6.0,6.0,55,0.00,,,-99.99,Homeseer,2013-01-13 23:00:00,
2013-01-13 18:10:00,75.4,61.8,30.06,SSE,157,5.8,6.3,55,0.00,,,-99.99,Homeseer,2013-01-13 23:10:00,
2013-01-13 18:20:00,75.4,61.4,30.06,SE,135,6.7,6.7,54,0.00,,,-99.99,Homeseer,2013-01-13 23:20:00,
2013-01-13 18:30:00,75.2,62.1,30.06,SSE,157,5.8,5.8,56,0.00,,,-99.99,Homeseer,2013-01-13 23:30:00,
2013-01-13 18:40:00,75.0,63.0,30.06,SSE,157,5.6,7.6,59,0.00,,,-99.99,Homeseer,2013-01-13 23:40:00,
2013-01-13 18:50:00,75.0,62.3,30.06,North,0,4.7,5.4,57,0.00,,,-99.99,Homeseer,2013-01-13 23:50:00,
2013-01-13 19:00:00,75.0,61.9,30.06,North,0,6.0,6.5,56,0.00,,,-99.99,Homeseer,2013-01-14 00:00:00,
2013-01-13 19:10:00,74.8,62.1,30.06,South,180,3.6,5.4,57,0.00,,,-99.99,Homeseer,2013-01-14 00:10:00,
2013-01-13 19:20:00,74.8,62.4,30.06,SE,135,6.3,10.1,58,0.00,,,-99.99,Homeseer,2013-01-14 00:20:00,
2013-01-13 19:30:00,74.7,62.0,30.06,SSE,157,7.2,7.2,57,0.00,,,-99.99,Homeseer,2013-01-14 00:30:00,
2013-01-13 19:40:00,74.7,62.0,30.06,ESE,112,7.2,7.2,57,0.00,,,-99.99,Homeseer,2013-01-14 00:40:00,
2013-01-13 19:50:00,74.7,62.0,30.06,SSE,157,4.5,6.5,57,0.00,,,-99.99,Homeseer,2013-01-14 00:50:00,
2013-01-13 20:00:00,74.5,61.4,30.06,SSE,157,5.6,7.4,56,0.00,,,-99.99,Homeseer,2013-01-14 01:00:00,
2013-01-13 20:10:00,74.5,60.6,30.06,SSE,157,6.9,7.4,54,0.00,,,-99.99,Homeseer,2013-01-14 01:10:00,
2013-01-13 20:20:00,74.5,60.2,30.06,SE,135,4.3,4.3,53,0.00,,,-99.99,Homeseer,2013-01-14 01:20:00,
2013-01-13 20:30:00,74.5,61.0,30.06,ESE,112,4.3,4.3,55,0.00,,,-99.99,Homeseer,2013-01-14 01:30:00,
2013-01-13 20:40:00,74.5,61.4,30.06,ESE,112,4.3,6.0,56,0.00,,,-99.99,Homeseer,2013-01-14 01:40:00,
2013-01-13 20:50:00,74.3,60.8,30.06,SE,135,4.9,7.6,55,0.00,,,-99.99,Homeseer,2013-01-14 01:50:00,
2013-01-13 21:00:00,74.3,60.8,30.06,SSE,157,4.9,4.9,55,0.00,,,-99.99,Homeseer,2013-01-14 02:00:00,
2013-01-13 21:10:00,74.3,61.6,30.06,North,0,3.1,3.6,57,0.00,,,-99.99,Homeseer,2013-01-14 02:10:00,
2013-01-13 21:20:00,74.3,62.0,30.03,SSE,157,6.3,8.5,58,0.00,,,-99.99,Homeseer,2013-01-14 02:20:00,
2013-01-13 21:30:00,74.3,62.4,30.03,SSE,157,7.8,7.8,59,0.00,,,-99.99,Homeseer,2013-01-14 02:30:00,
2013-01-13 21:40:00,74.3,61.6,30.03,SE,135,5.8,5.8,57,0.00,,,-99.99,Homeseer,2013-01-14 02:40:00,
2013-01-13 21:50:00,74.3,62.4,30.03,South,180,6.9,6.9,59,0.00,,,-99.99,Homeseer,2013-01-14 02:50:00,
2013-01-13 22:00:00,74.1,62.2,30.03,South,180,7.4,7.4,59,0.00,,,-99.99,Homeseer,2013-01-14 03:00:00,
2013-01-13 22:10:00,74.1,61.8,30.03,North,0,5.8,6.3,58,0.00,,,-99.99,Homeseer,2013-01-14 03:10:00,
2013-01-13 22:20:00,74.1,61.4,30.03,ESE,112,5.8,7.4,57,0.00,,,-99.99,Homeseer,2013-01-14 03:20:00,
2013-01-13 22:30:00,74.1,60.3,30.03,SSE,157,4.5,4.5,54,0.00,,,-99.99,Homeseer,2013-01-14 03:30:00,
2013-01-13 22:40:00,74.3,60.0,30.03,SSE,157,4.9,7.2,53,0.00,,,-99.99,Homeseer,2013-01-14 03:40:00,
2013-01-13 22:50:00,74.3,59.2,30.06,SW,225,3.1,4.0,51,0.00,,,-99.99,Homeseer,2013-01-14 03:50:00,
2013-01-13 23:00:00,74.1,58.6,30.06,SE,135,6.9,6.9,50,0.00,,,-99.99,Homeseer,2013-01-14 04:00:00,
2013-01-13 23:10:00,74.1,58.6,30.06,SSE,157,4.5,4.5,50,0.00,,,-99.99,Homeseer,2013-01-14 04:10:00,
2013-01-13 23:20:00,74.1,58.2,30.06,SE,135,4.3,4.3,49,0.00,,,-99.99,Homeseer,2013-01-14 04:20:00,
2013-01-13 23:30:00,74.1,58.6,30.06,North,0,6.9,6.9,50,0.00,,,-99.99,Homeseer,2013-01-14 04:30:00,
2013-01-13 23:40:00,73.9,58.4,30.06,SSE,157,5.4,5.4,50,0.00,,,-99.99,Homeseer,2013-01-14 04:40:00,
2013-01-13 23:50:00,74.1,58.2,30.06,SE,135,4.9,5.6,49,0.00,,,-99.99,Homeseer,2013-01-14 04:50:00,